When you browse on this site, cookies collect data to enhance your experience and personalize the content and advertising you see.
Visit our Privacy Policy to learn more. By continuing to use the site, you agree to this use of cookies and data.
  • In Austria
  • List of Countries
  • For 7 days
  • Water Temperature
  • Satellite Maps
  • Weather Map
  • News
  • Weather Widgets
  • user-avatar
    Login

    Hourly Weather Elzbiecin

    Today, 20 February, Wednesday

    Time Temperature Precipitation Wind Pressure Humidity
    00:00 +2°C° 0 mm 5 mps 748 mmHg 90%
    01:00 +1°C° 0 mm 4 mps 748 mmHg 92%
    02:00 +1°C° 0 mm 4 mps 748 mmHg 92%
    03:00 +1°C° 0 mm 5 mps 748 mmHg 91%
    04:00 +1°C° 0 mm 6 mps 748 mmHg 91%
    05:00 +1°C° 0 mm 6 mps 748 mmHg 91%
    06:00 +1°C° 0 mm 6 mps 748 mmHg 90%
    07:00 +1°C° 0 mm 5 mps 749 mmHg 89%
    08:00 +1°C° 0.1 mm 6 mps 749 mmHg 83%
    09:00 +2°C° 0.1 mm 7 mps 749 mmHg 76%
    10:00 +2°C° 0.1 mm 8 mps 750 mmHg 70%
    11:00 +2°C° 0.1 mm 8 mps 750 mmHg 69%
    12:00 +2°C° 0.1 mm 8 mps 750 mmHg 67%
    13:00 +4°C° 0.1 mm 8 mps 750 mmHg 66%
    14:00 +4°C° 0 mm 8 mps 751 mmHg 66%
    15:00 +4°C° 0 mm 7 mps 751 mmHg 66%
    16:00 +3°C° 0 mm 6 mps 751 mmHg 67%
    17:00 +3°C° 0 mm 6 mps 752 mmHg 71%
    18:00 +2°C° 0 mm 6 mps 752 mmHg 74%
    19:00 +2°C° 0 mm 5 mps 753 mmHg 78%
    20:00 +1°C° 0 mm 4 mps 753 mmHg 80%
    21:00 0°C° 0 mm 4 mps 754 mmHg 82%
    22:00 0°C° 0 mm 3 mps 754 mmHg 84%
    23:00 0°C° 0 mm 3 mps 755 mmHg 84%

    Tomorrow, 21 February, Thursday

    Time Temperature Precipitation Wind Pressure Humidity
    00:00 -1°C° 0 mm 3 mps 755 mmHg 83%
    01:00 -1°C° 0 mm 2 mps 755 mmHg 83%
    02:00 -1°C° 0 mm 2 mps 755 mmHg 82%
    03:00 -1°C° 0 mm 2 mps 755 mmHg 81%
    04:00 -1°C° 0 mm 2 mps 755 mmHg 80%
    05:00 -1°C° 0 mm 2 mps 755 mmHg 82%
    06:00 +2°C° 0 mm 1 mps 755 mmHg 84%
    07:00 +2°C° 0 mm 1 mps 755 mmHg 86%
    08:00 +3°C° 0.3 mm 1 mps 755 mmHg 87%
    09:00 +2°C° 0.3 mm 2 mps 755 mmHg 88%
    10:00 +2°C° 0.3 mm 2 mps 755 mmHg 89%
    11:00 +3°C° 0.8 mm 2 mps 755 mmHg 91%
    12:00 +3°C° 0.8 mm 2 mps 755 mmHg 93%
    13:00 +3°C° 0.8 mm 2 mps 754 mmHg 94%
    14:00 +2°C° 1 mm 3 mps 754 mmHg 95%
    15:00 +2°C° 1 mm 3 mps 753 mmHg 95%
    16:00 +3°C° 1 mm 4 mps 752 mmHg 95%
    17:00 +3°C° 1 mm 4 mps 752 mmHg 95%
    18:00 +3°C° 1 mm 4 mps 752 mmHg 95%
    19:00 +3°C° 1 mm 4 mps 752 mmHg 95%
    20:00 +3°C° 0.8 mm 3 mps 752 mmHg 96%
    21:00 +2°C° 0.8 mm 3 mps 751 mmHg 96%
    22:00 +3°C° 0.8 mm 2 mps 751 mmHg 97%
    23:00 0°C° 0.4 mm 4 mps 752 mmHg 94%

    Day after tomorrow, 22 February, Friday

    Time Temperature Precipitation Wind Pressure Humidity
    00:00 -2°C° 0.4 mm 6 mps 752 mmHg 92%
    01:00 -5°C° 0.4 mm 8 mps 753 mmHg 90%
    02:00 -4°C° 0.1 mm 7 mps 754 mmHg 86%
    03:00 -6°C° 0.1 mm 7 mps 755 mmHg 83%
    04:00 -6°C° 0.1 mm 7 mps 756 mmHg 80%
    05:00 -7°C° 0 mm 7 mps 757 mmHg 78%
    06:00 -7°C° 0 mm 7 mps 759 mmHg 75%
    07:00 -8°C° 0 mm 6 mps 760 mmHg 73%
    08:00 -8°C° 0 mm 6 mps 761 mmHg 68%
    09:00 -8°C° 0 mm 6 mps 762 mmHg 63%
    10:00 -6°C° 0 mm 6 mps 763 mmHg 58%
    11:00 -6°C° 0 mm 6 mps 764 mmHg 56%
    12:00 -6°C° 0 mm 6 mps 765 mmHg 55%
    13:00 -5°C° 0 mm 6 mps 765 mmHg 53%
    14:00 -6°C° 0 mm 5 mps 766 mmHg 53%
    15:00 -6°C° 0 mm 5 mps 766 mmHg 53%
    16:00 -6°C° 0 mm 5 mps 766 mmHg 52%
    17:00 -6°C° 0 mm 5 mps 767 mmHg 53%
    18:00 -7°C° 0 mm 5 mps 768 mmHg 54%
    19:00 -7°C° 0 mm 5 mps 768 mmHg 54%
    20:00 -7°C° 0 mm 5 mps 769 mmHg 54%
    21:00 -7°C° 0 mm 5 mps 769 mmHg 53%
    22:00 -7°C° 0 mm 4 mps 770 mmHg 53%
    23:00 -7°C° 0 mm 4 mps 770 mmHg 54%

    23 February, Saturday

    Time Temperature Precipitation Wind Pressure Humidity
    00:00 -8°C° 0 mm 4 mps 770 mmHg 55%
    01:00 -8°C° 0 mm 4 mps 770 mmHg 56%
    02:00 -7°C° 0 mm 3 mps 770 mmHg 58%
    03:00 -7°C° 0 mm 3 mps 770 mmHg 60%
    04:00 -7°C° 0 mm 2 mps 770 mmHg 61%
    05:00 -7°C° 0 mm 2 mps 771 mmHg 62%
    06:00 -7°C° 0 mm 2 mps 771 mmHg 63%
    07:00 -7°C° 0 mm 2 mps 771 mmHg 64%
    08:00 -6°C° 0 mm 2 mps 771 mmHg 58%
    09:00 -5°C° 0 mm 2 mps 771 mmHg 51%
    10:00 -5°C° 0 mm 2 mps 771 mmHg 45%
    11:00 -4°C° 0 mm 2 mps 771 mmHg 41%
    12:00 -3°C° 0 mm 2 mps 771 mmHg 37%
    13:00 -2°C° 0 mm 2 mps 771 mmHg 33%
    14:00 -2°C° 0 mm 2 mps 771 mmHg 34%
    15:00 -2°C° 0 mm 2 mps 770 mmHg 34%
    16:00 -2°C° 0 mm 2 mps 770 mmHg 34%
    17:00 -2°C° 0 mm 2 mps 770 mmHg 38%
    18:00 0°C° 0 mm 1 mps 770 mmHg 41%
    19:00 0°C° 0 mm 1 mps 770 mmHg 44%
    20:00 0°C° 0 mm 1 mps 769 mmHg 46%
    21:00 -1°C° 0 mm 1 mps 769 mmHg 47%
    22:00 -1°C° 0 mm 1 mps 769 mmHg 48%
    23:00 -3°C° 0 mm 2 mps 769 mmHg 49%

    24 February, Sunday

    Time Temperature Precipitation Wind Pressure Humidity
    00:00 -2°C° 0 mm 2 mps 769 mmHg 50%
    01:00 -2°C° 0 mm 2 mps 769 mmHg 51%
    02:00 -2°C° 0 mm 2 mps 768 mmHg 53%
    03:00 -2°C° 0 mm 3 mps 768 mmHg 56%
    04:00 -2°C° 0 mm 3 mps 767 mmHg 59%
    05:00 -2°C° 0 mm 3 mps 767 mmHg 60%
    06:00 -2°C° 0 mm 3 mps 767 mmHg 62%
    07:00 -2°C° 0 mm 2 mps 767 mmHg 64%
    08:00 -1°C° 0 mm 3 mps 767 mmHg 61%
    09:00 -1°C° 0 mm 3 mps 767 mmHg 58%
    10:00 0°C° 0 mm 3 mps 767 mmHg 56%
    11:00 +2°C° 0 mm 2 mps 767 mmHg 56%
    12:00 +3°C° 0 mm 2 mps 766 mmHg 57%
    13:00 +4°C° 0 mm 2 mps 766 mmHg 58%
    14:00 +3°C° 0 mm 2 mps 766 mmHg 62%
    15:00 +3°C° 0 mm 2 mps 766 mmHg 66%
    16:00 +4°C° 0 mm 1 mps 766 mmHg 70%
    17:00 +2°C° 0 mm 2 mps 766 mmHg 74%
    18:00 +1°C° 0 mm 2 mps 766 mmHg 78%
    19:00 -1°C° 0 mm 2 mps 765 mmHg 81%
    20:00 -1°C° 0 mm 2 mps 765 mmHg 83%
    21:00 -1°C° 0 mm 2 mps 765 mmHg 84%
    22:00 -1°C° 0 mm 2 mps 765 mmHg 85%
    23:00 -1°C° 0 mm 2 mps 765 mmHg 87%

    25 February, Monday

    Time Temperature Precipitation Wind Pressure Humidity
    00:00 +1°C° 0 mm 2 mps 764 mmHg 88%
    01:00 +1°C° 0 mm 2 mps 764 mmHg 89%
    02:00 -1°C° 0 mm 3 mps 764 mmHg 90%
    03:00 -1°C° 0 mm 3 mps 764 mmHg 92%
    04:00 -1°C° 0 mm 3 mps 763 mmHg 93%
    05:00 -1°C° 0 mm 3 mps 763 mmHg 93%
    06:00 -1°C° 0 mm 4 mps 763 mmHg 94%
    07:00 -1°C° 0 mm 4 mps 763 mmHg 94%
    08:00 0°C° 0 mm 5 mps 763 mmHg 90%
    09:00 +1°C° 0 mm 6 mps 764 mmHg 85%
    10:00 +2°C° 0 mm 7 mps 764 mmHg 80%
    11:00 +2°C° 0 mm 7 mps 764 mmHg 78%
    12:00 +3°C° 0 mm 6 mps 764 mmHg 76%
    13:00 +3°C° 0 mm 6 mps 765 mmHg 74%
    14:00 +2°C° 0 mm 5 mps 765 mmHg 75%
    15:00 +3°C° 0 mm 4 mps 765 mmHg 76%
    16:00 +3°C° 0 mm 4 mps 765 mmHg 77%
    17:00 +1°C° 0 mm 4 mps 765 mmHg 81%
    18:00 0°C° 0 mm 4 mps 765 mmHg 85%
    19:00 -1°C° 0 mm 4 mps 766 mmHg 90%
    20:00 -2°C° 0 mm 4 mps 766 mmHg 90%
    21:00 -2°C° 0 mm 4 mps 765 mmHg 90%
    22:00 -1°C° 0 mm 3 mps 765 mmHg 90%
    23:00 -1°C° 0 mm 3 mps 765 mmHg 90%
    Show more